x

Diamond Shoals (41025) Wave Buoy

4:50 - Fri 9th Dec 2016 All times are EST. -5 hours from GMT.

  • Sig Wave height 5.2ft
  • Swell Direction
  • Peak Period 10s
  • Average Period 6s
  • Wind
    20mph, 27mph gusts
  • Sea Temp 75°f
  • Ar Temp 42°f
  • Sea Pressure 1027.4mb
  • Diamond Shoals
  • Diamond Shoals

More Historic Weather Station data

Upgrade to MSW Pro to gain access to the past 30 days of data for over 8000 Wavebouys and Weather Stations around the globe.

Join Pro

Comparision Forecast

View Surf forecast
   
Sex 12/09 4:50 5ft 10s 6s 20 27 mph 1027.4mb 75f 42f
3:50 5ft 9s 6s 20 27 mph 1026.7mb 76f 42f
2:50 5ft 9s 6s 18 25 mph 1026.2mb 76f 42f
1:50 4.5ft 9s 6s 18 25 mph 1026mb 76f 42f
12:50 4.5ft 8s 6s 20 25 mph 1025.7mb 76f 42f
11:50 5ft 8s 5s 22 27 mph 1025.8mb 75f 42f
10:50 5ft 8s 5s 20 29 mph 1026.4mb 75f 42f
9:50 4.5ft 8s 6s 22 29 mph 1026.2mb 75f 43f
8:50 5ft 7s 5s 20 27 mph 1025.7mb 75f 44f
7:50 5.5ft 6s 5s 22 27 mph 1024.7mb 75f 44f
6:50 5.5ft 6s 5s 22 29 mph 1023.8mb 75f 45f
5:50 5.5ft 6s 5s 25 31 mph 1022.6mb 75f 46f
4:50 6.5ft 5s 5s 25 31 mph 1022.2mb 75f 47f
3:50 6ft 6s 5s 27 36 mph 1021.2mb 75f 48f
2:50 6ft 5s 5s 29 34 mph 1021.1mb 76f 49f
1:50 5ft 5s 5s 27 31 mph 1020.5mb 76f 50f
12:50 5ft 5s 5s 25 29 mph 1020.2mb 76f 51f
Qui 12/08 11:50 5.5ft 5s 5s 25 31 mph 1020.1mb 76f 51f
10:50 5ft 5s 5s 25 34 mph 1020.2mb 77f 51f
9:50 5ft 5s 5s 27 31 mph 1020mb 77f 53f
8:50 5ft 5s 5s 25 31 mph 1019.9mb 77f 53f
7:50 4.5ft 4s 4s 25 29 mph 1019.4mb 77f 53f
6:50 4.5ft 4s 5s 22 29 mph 1018.6mb 77f 54f
5:50 5ft 9s 5s 25 31 mph 1017.4mb 77f 56f
4:50 4.5ft 10s 5s 22 27 mph 1016.5mb 77f 57f
3:50 4.5ft 10s 5s 25 29 mph 1015.5mb 77f 58f
2:50 4.5ft 9s 5s 20 27 mph 1015mb 77f 60f
1:50 4.5ft 9s 5s 16 22 mph 1014.7mb 78f 61f
12:50 4.5ft 11s 5s 22 29 mph 1015mb 78f 63f
11:50 4ft 11s 7s 16 22 mph 1016.2mb 78f 62f
10:50 4ft 11s 7s 9 11 mph 1017.2mb 78f 61f
9:50 4.5ft 10s 8s 7 9 mph 1017.7mb 78f 60f
8:50 4ft 9s 7s 4 7 mph 1017.4mb 78f 59f
7:50 4.5ft 9s 8s 7 9 mph 1017.7mb 78f 58f
6:50 4.5ft 9s 7s 7 9 mph 1017.7mb 78f 57f
5:50 4.5ft 10s 7s 7 13 mph 1017.7mb 78f 57f
4:50 5ft 10s 8s 4 11 mph 1017.8mb 78f 55f
3:50 5ft 11s 8s 7 11 mph 1018mb 78f 55f
2:50 5.5ft 10s 8s 9 11 mph 1018mb 78f 54f
12:50 5ft 11s 7s 11 16 mph 1018.4mb 78f 55f
Qua 12/07 11:50 5.5ft 10s 8s 9 13 mph 1018.5mb 78f 55f
10:50 6ft 11s 8s 7 11 mph 1018.6mb 78f 55f
9:50 6.5ft 10s 8s 9 16 mph 1018.9mb 78f 54f
8:50 6.5ft 10s 8s 13 18 mph 1018.9mb 78f 55f
7:50 7ft 10s 8s 16 20 mph 1018.8mb 78f 55f
6:50 6.5ft 11s 7s 13 18 mph 1018.5mb 77f 58f
5:50 5.5ft 10s 7s 13 18 mph 1017.9mb 77f 57f
4:50 6ft 11s 7s 13 20 mph 1017.3mb 76f 57f
3:50 6ft 11s 7s 16 20 mph 1016.9mb 76f 56f
2:50 6ft 8s 7s 13 18 mph 1016.2mb 76f 56f
1:50 5.5ft 10s 6s 16 25 mph 1015.7mb 76f 56f
12:50 6ft 9s 6s 16 22 mph 1015.9mb 76f 55f
11:50 6ft 11s 6s 18 25 mph 1016.1mb 76f 55f
10:50 6ft 11s 5s 18 25 mph 1016.4mb 76f 54f
9:50 6ft 5s 5s 20 27 mph 1015.9mb 74f 55f
8:50 5.5ft 5s 5s 20 27 mph 1015.2mb 74f 54f
7:50 6ft 5s 5s 25 29 mph 1013.7mb 74f 54f
6:50 6.5ft 5s 5s 25 31 mph 1012.6mb 74f 54f
5:50 6.5ft 8s 5s 27 34 mph 1011.6mb 74f 55f
4:50 7ft 10s 5s 27 31 mph 1010.4mb 74f 55f
3:50 7.5ft 9s 6s 27 34 mph 1009.4mb 74f 56f
2:50 7ft 9s 5s 29 36 mph 1008.8mb 74f 57f
1:50 8ft 6s 5s 29 38 mph 1007.9mb 74f 58f
12:50 8ft 5s 5s 31 38 mph 1007.2mb 74f 58f
Ter 12/06 11:50 9ft 6s 6s 36 43 mph 1006.4mb 74f 60f
10:50 9ft 6s 5s 34 40 mph 1005.5mb 74f 62f
9:50 8.5ft 6s 5s 36 43 mph 1004.5mb 74f 64f
8:50 9ft 6s 5s 34 43 mph 1002.9mb 74f 71f
7:50 10ft 9s 6s 34 40 mph 1002mb 74f 72f
6:50 9.5ft 8s 6s 34 43 mph 1002mb 75f 73f
5:50 9.5ft 9s 7s 25 31 mph 1002.3mb 75f 74f
4:50 11.5ft 8s 7s 13 18 mph 1002.1mb 76f 74f
3:50 10ft 9s 7s 27 34 mph 1002mb 76f 71f
2:50 10ft 8s 7s 34 43 mph 1001.7mb 76f 70f
1:50 9ft 8s 6s 29 34 mph 1004.8mb 75f 69f
12:50 9ft 8s 6s 29 34 mph 1006.8mb 75f 68f
11:50 7ft 8s 6s 29 34 mph 1008.5mb 75f 69f
10:50 7ft 6s 6s 31 38 mph 1010.1mb 75f 68f
9:50 6ft 7s 5s 27 31 mph 1012.3mb 76f 67f
8:50 6ft 8s 6s 25 29 mph 1012.8mb 76f 67f
7:50 5ft 9s 5s 22 27 mph 1013.2mb 76f 66f
6:50 5.5ft 8s 6s 20 27 mph 1014mb 76f 65f
5:50 6ft 9s 6s 22 27 mph 1015.1mb 76f 61f
4:50 5ft 8s 6s 25 29 mph 1015.6mb 76f 60f
3:50 5ft 8s 6s 22 25 mph 1015.9mb 76f 60f
2:50 5ft 9s 6s 20 22 mph 1016.5mb 76f 60f
1:50 4.5ft 7s 6s 16 20 mph 1017.1mb 76f 60f
12:50 4.5ft 8s 6s 18 22 mph 1015.9mb 76f 59f
Seg 12/05 11:50 4.5ft 8s 6s 16 20 mph 1017.7mb 77f 59f